AirNav   Everest Fuels
 
 1651 users online  

KPHK Palm Beach County Glades Airport
Pahokee, Florida, USA

GOING TO PAHOKEE?


FAA INFORMATION EFFECTIVE 10 SEPTEMBER 2020

Location

FAA Identifier: PHK
Lat/Long: 26-47-06.1000N 080-41-36.1000W
26-47.101667N 080-41.601667W
26.7850278,-80.6933611
(estimated)
Elevation: 15.9 ft. / 4.8 m (surveyed)
Variation: 07W (2020)
From city: 3 miles SW of PAHOKEE, FL
Time zone: UTC -4 (UTC -5 during Standard Time)
Zip code: 33476

Airport Operations

Airport use: Open to the public
Activation date: 06/1949
Control tower: no
ARTCC: MIAMI CENTER
FSS: MIAMI FLIGHT SERVICE STATION
NOTAMs facility: MIA (NOTAM-D service available)
Attendance: 0800-1800
FOR SVC AFTER HRS CTC FBO AT 561-626-9799.
Wind indicator: lighted
Segmented circle: yes
Lights: ACTVT MIRL RY 18/36 - CTAF.
Beacon: white-green (lighted land airport)
Operates sunset to sunrise.

Airport Communications

CTAF/UNICOM: 122.8
PALM BEACH APPROACH: 128.3
PALM BEACH DEPARTURE: 128.3
WX AWOS-3PT at 2IS (19 nm W): 124.175 (863-983-7020)

Nearby radio navigation aids

VOR radial/distance  VOR name  Freq  Var
PHK at fieldPAHOKEE VOR/DME115.4000E
PBIr284/33.1PALM BEACH VORTAC115.7003W
LBVr093/37.5LA BELLE VORTAC110.4001E

 
NDB name  Hdg/Dist  Freq  Var  ID
UNITED254/20.640505WUTX ..- - -..-

Airport Services

Fuel available: 100LL JET-A
Parking: hangars and tiedowns
Airframe service: NONE
Powerplant service: NONE
Bottled oxygen: NONE
Bulk oxygen: NONE

Runway Information

Runway 18/36

Dimensions: 4116 x 75 ft. / 1255 x 23 m
Surface: asphalt, in good condition
Weight bearing capacity: 
PCN 13 /F/B/X/T
Single wheel: 20.0
Runway edge lights: medium intensity
RUNWAY 18  RUNWAY 36
Latitude: 26-47.439657N26-46.764527N
Longitude: 080-41.643560W080-41.558973W
Elevation: 15.3 ft.15.6 ft.
Traffic pattern: leftleft
Runway heading: 181 magnetic, 174 true001 magnetic, 354 true
Displaced threshold: 100 ft.52 ft.
Declared distances: TORA:4069 TODA:4069 ASDA:4119 LDA:4016TORA:4016 TODA:4016 ASDA:4170 LDA:4069
Markings: nonprecision, in good conditionnonprecision, in good condition
Visual slope indicator: 2-light PAPI on left (3.00 degrees glide path)2-light PAPI on left (3.00 degrees glide path)
Runway end identifier lights: yesyes
Touchdown point: yes, no lightsyes, no lights
Obstructions: 36 ft. tree, 1050 ft. from runway, 155 ft. right of centerline, 23:1 slope to clear
RY 18 APCH RATIO 34:1 AT DSPLCD THLD.
3 ft. fence, 213 ft. from runway, 250 ft. left of centerline, 6:1 slope to clear
RY 36 APCH RATIO 34:1 AT DSPLCD THLD DUE TO 25 FT PLINE 820 FT FM THE END 250 FT R OF RY CNTRLN.

Airport Ownership and Management from official FAA records

Ownership: Publicly-owned
Owner: PALM BEACH COUNTY
DEPARTMENT OF AIRPORTS, 846 PBIA
WEST PALM BEACH, FL 33406-1491
Phone 561-471-7420
Manager: LAURA BEEBE
846 PALM BEACH INTL AIRPORT
WEST PALM BEACH, FL 33406-1470
Phone 561-471-7420
AIRPORT PHYSICAL ADDRESS: 3800 STATE ROAD 715, PAHOKEE, FL 33476

Airport Operational Statistics

Aircraft based on the field: 12
Single engine airplanes: 10
Multi engine airplanes: 1
Helicopters: 1
    
Aircraft operations: avg 101/day *
79% transient general aviation
20% local general aviation
<1% air taxi
* for 12-month period ending 31 December 2018

Additional Remarks

BIRDS ON AND INVOF ARPT.
AIRPORT SURFACE CONDITIONS NOT REPORTED FOR ALL RUNWAYS.
FOR CD IF UNA TO CTC ON FSS FREQ, CTC PALM BEACH APCH AT 561-275-1430.

Instrument Procedures

NOTE: All procedures below are presented as PDF files. If you need a reader for these files, you should download the free Adobe Reader.

NOT FOR NAVIGATION. Please procure official charts for flight.
FAA instrument procedures published for use from 10 September 2020 at 0901Z to 08 October 2020 at 0900z.

 
IAPs - Instrument Approach Procedures
RNAV (GPS) RWY 18   download (209KB)
RNAV (GPS) RWY 36   download (215KB)
NOTE: Special Take-Off Minimums/Departure Procedures apply   download (257KB)

Other nearby airports with instrument procedures:

2IS - Airglades Airport (19 nm W)
06FA - William P Gwinn Airport (21 nm E)
F45 - North Palm Beach County General Aviation Airport (25 nm E)
KOBE - Okeechobee County Airport (30 nm N)
KPBI - Palm Beach International Airport (33 nm E)
 
Loc | Ops | Rwys | IFR | FBO | Links
Com | Nav | Svcs | Stats | Notes


 
Area around KPHK (Palm Beach County Glades Airport)
 
Road maps at: MapQuest Bing Google
 
Aerial photo
WARNING: Photo may not be current or correct
Aerial photo of KPHK (Palm Beach County Glades Airport)
Photo by Dave Fogarty
ATP/CFI-AIS/A&P-IA
Photo taken 28-Oct-2018
looking south.

Do you have a better or more recent aerial photo of Palm Beach County Glades Airport that you would like to share? If so, please send us your photo.

 
Sectional chart

 
Airport distance calculator
Flying to Palm Beach County Glades Airport? Find the distance to fly.

From to KPHK

Sunrise and sunset
Times for 21-Sep-2020
 Local
(UTC-4)
 Zulu
(UTC)
Morning civil twilight06:4910:49
Sunrise07:1211:12
Sunset19:1923:19
Evening civil twilight19:4223:42

Current date and time
Zulu (UTC)  21-Sep-2020 16:49:58
Local (UTC-4)  21-Sep-2020 12:49:58
 
METAR
K2IS 
19nm W 
211635Z AUTO 06020G28KT 10SM SCT023 BKN038 OVC080 A3002 RMK AO2 LTG DSNT SE
KF45 
25nm E 
211630Z AUTO 06016G23KT 10SM 29/23 A3002 RMK AO2 LTG DSNT SE AND S
KOBE 
30nm N 
211635Z AUTO 06010G18KT 10SM SCT030 SCT040 OVC050 28/21 A3003 RMK AO2
KPBI 
32nm E 
211553Z 04010G21KT 5SM R10L/5000VP6000FT -RA BR SCT018 BKN037 OVC070 27/25 A3001 RMK AO2 PK WND 07027/1510 SLP161 P0001 T02720250 $
KLNA 
35nm E 
211635Z AUTO 08013G18KT 5SM -DZ SCT014 BKN020 OVC031 27/26 A3001 RMK AO2 LTG DSNT SE T02710256 PNO
KSUA 
35nm NE 
211550Z 05017G21KT 7SM SCT020 BKN032 28/22 A3004
TAF
KPBI 
32nm E 
211451Z 2115/2212 06015G26KT P6SM VCTS SCT020CB BKN030 TEMPO 2115/2117 BKN020CB OVC045 FM211700 05018G30KT P6SM VCTS SCT025CB BKN060 FM212000 05019G31KT P6SM VCSH SCT025 BKN035 FM220300 06015G29KT P6SM FEW040 SCT090
KSUA 
35nm NE 
211146Z 2112/2212 06015G25KT P6SM VCSH SCT025 BKN040 FM211400 06020G29KT P6SM SCT030 BKN050 FM220030 06014G21KT P6SM SCT035 FM220300 06014KT P6SM SCT040
NOTAMs
Click for the latest NOTAMs
NOTAMs are issued by the DoD/FAA and will open in a separate window not controlled by AirNav.

 

 
 

FBO, Fuel Providers, and Aircraft Ground Support

  
 Business Name 
 
 Contact 
 
 Services / Description 
 
Fuel Prices
 
Comments
  
Signature Flight Support 561-924-5253
[web site]
[email]
Airport management, Aviation fuel, Aircraft parking (ramp or tiedown), Hangars, GPU / Power cart, Passenger terminal and lounge, Public telephone, Restrooms

More info about Signature Flight Support
independent
100LL Jet A
FS $5.69 $5.99 
 Updated 18-Sep-2020
 
   write
FS=Full service
Update Fuel Prices
 

Would you like to see your business listed on this page?

 If your business provides an interesting product or service to pilots, flight crews, aircraft, or users of the Palm Beach County Glades Airport, you should consider listing it here.  To start the listing process, click on the button below
 
Add a business
 

Other Pages about Palm Beach County Glades Airport

www.pbia.org/...
 
Update a link
 
Copyright © AirNav, LLC. All rights reserved. Privacy Policy  Contact